{"data":{"norad_id":67864,"epoch":"2026-09-19T16:15:20.030688Z","epoch_age_seconds":137563,"freshness":"FRESH","line1":"1 67864U 26034Q   26262.67731517  .00024655  00000+0  73813-3 0  9997","line2":"2 67864  53.1598  21.2344 0001137  85.7691 274.3441 15.34412901 33762","mean_motion":15.34412901,"eccentricity":0.0001137,"inclination_deg":53.1598,"raan_deg":21.2344,"arg_perigee_deg":85.7691,"mean_anomaly_deg":274.3441,"bstar":0.00073813,"rev_number":3376,"period_min":93.846969030404,"perigee_km":461.88709680943,"apogee_km":463.44269516058,"semimajor_km":6840.801895985,"source":"CELESTRAK","updated_at":"2026-09-20T09:00:43.676331Z"}}